Flag for U.S.A. Weather past 2 weeks in Scranton, Pennsylvania, U.S.A.

Now
35 °F

Overcast.


Feels Like: 27 °F
Forecast: 32 / 38 °F
Wind: 12 mph from Northwest

Location: Barre - Scranton - Wilkes-Barre / Scranton International Airport

Current Time: Dec 18, 2014 at 12:36:35 PM

Latest Report: Dec 18, 2014 at 11:54 AM


Visibility: 10 mi

Pressure: 30.01 "Hg

Humidity: 61%

Dew point: 23 °F

Location of ScrantonLocation

Historic Weather in Scranton — Graph

°F

Scranton temperature yesterday

Maximum temperature yesterday: 46 °F (at 11:54 AM)
Minimum temperature yesterday: 35 °F (at 11:54 PM)
Average temperature yesterday: 42 °F

Past Weeks' High & Low Weather Summary

 TemperatureHumidityPressure
High46 °F (Dec 17, 11:54 AM)93% (Dec 3, 10:54 AM)30.64 "Hg (Dec 3, 10:54 AM)
Low24 °F (Dec 8, 1:54 AM)29% (Dec 8, 7:54 AM)29.65 "Hg (Dec 11, 1:02 AM)
Average34 °F74%30.10 "Hg
* Reported Dec 3 10:54 AM — Dec 18 10:54 AM, Scranton, Weather by CustomWeather, © 2014

Note: Actual official high and low records may vary slightly from our data, if they occured in-between our weather recording intervals... More about our weather records

Advertising

Scranton weather history for previous 24 hours

 ConditionsComfort  
Time TempWeatherWind HumidityBarometerVisibility
10:54 AM
Dec 18
35 °FOvercast.13 mph61%30.02 "Hg10 mi
9:54 AM34 °FMostly cloudy.14 mph61%30.04 "Hg10 mi
8:54 AM34 °FOvercast.18 mph61%30.03 "Hg10 mi
7:54 AM33 °FOvercast.16 mph63%30.02 "Hg10 mi
6:54 AM33 °FOvercast.16 mph61%30.01 "Hg10 mi
5:54 AM33 °FOvercast.17 mph61%30.00 "Hg10 mi
4:54 AM34 °FOvercast.24 mph59%29.97 "Hg10 mi
3:54 AM34 °FPassing clouds.15 mph59%29.97 "Hg10 mi
2:54 AM34 °FOvercast.10 mph61%29.97 "Hg10 mi
1:54 AM33 °FMostly cloudy.8 mph75%29.95 "Hg9 mi
12:54 AM33 °FLight snow. Overcast.14 mph82%29.94 "Hg3 mi
11:54 PM
Dec 17
35 °FLight snow. Overcast.9 mph72%29.93 "Hg2 mi
10:54 PM36 °FOvercast.9 mph64%29.93 "Hg10 mi
9:54 PM37 °FOvercast.7 mph60%29.93 "Hg10 mi
8:54 PM38 °FOvercast.15 mph58%29.92 "Hg10 mi
7:54 PM39 °FOvercast.18 mph57%29.91 "Hg10 mi
6:54 PM39 °FOvercast.5 mph65%29.91 "Hg10 mi
5:54 PM40 °FMostly cloudy.15 mph68%29.91 "Hg10 mi
4:54 PM41 °FOvercast.10 mph76%29.90 "Hg10 mi
3:54 PM42 °FMostly cloudy.12 mph79%29.87 "Hg10 mi
2:54 PM43 °FLight rain. Cloudy.10 mph79%29.86 "Hg10 mi
1:54 PM44 °FMostly cloudy.10 mph76%29.85 "Hg10 mi
12:54 PM44 °FMostly cloudy.13 mph76%29.84 "Hg10 mi
Weather by CustomWeather, © 2014

See weather overviewHow to use our weather pages